Home   Weather   Bischofshofen   Past weeks

Flag for Austria Past Weather in Bischofshofen, Salzburg, Austria — Yesterday and Last 2 Weeks

45 °F

Passing clouds.

Feels Like: 45 °F
Forecast: 50 / 57 °F
Wind: 2 mph from Southwest

Location: Salzburg-Flughafen

Current Time: Oct 25, 2016 at 5:06:37 AM

Latest Report: Oct 25, 2016 at 4:20 AM

Visibility: N/A

Pressure: 30.04 "Hg (28.11 "Hg at 545m altitude)

Humidity: 93%

Dew Point: 43 °F

Location of BischofshofenLocation

Past Weather in Bischofshofen — Graph


Bischofshofen Temperature Yesterday

Maximum temperature yesterday: 68 °F (at 2:20 PM)
Minimum temperature yesterday: 46 °F (at 12:20 AM)
Average temperature yesterday: 56 °F

High & Low Weather Summary for the Past Weeks

High68 °F (Oct 15, 12:50 PM)100% (Oct 10, 3:20 AM)30.27 "Hg (Oct 10, 3:20 AM)
Low28 °F (Oct 13, 7:20 AM)39% (Oct 23, 1:50 PM)29.71 "Hg (Oct 15, 3:50 AM)
Average47 °F84%30.03 "Hg
* Reported Oct 10 3:20 AM — Oct 25 3:50 AM, Bischofshofen, Weather by CustomWeather, © 2016

Note: Actual official high and low records may vary slightly from our data, if they occured in-between our weather recording intervals... More about our weather records


Bischofshofen Weather History for the Previous 24 Hours

Scroll right to see more
Time TempWeatherWind HumidityBarometerVisibility
3:50 AM
Tue, Oct 25
48 °FPassing clouds.1 mph87%30.01 "HgN/A
3:20 AM48 °FPassing clouds.2 mph87%30.04 "HgN/A
2:50 AM50 °FPassing clouds.5 mph82%30.04 "HgN/A
2:20 AM52 °FPassing clouds.2 mph82%30.01 "HgN/A
1:50 AM52 °FPassing clouds.6 mph82%30.01 "HgN/A
1:20 AM55 °FPassing clouds.5 mph72%30.01 "HgN/A
12:50 AM54 °FPassing clouds.8 mph77%30.01 "HgN/A
12:20 AM55 °FPassing clouds.8 mph72%30.01 "HgN/A
11:50 PM
Mon, Oct 24
55 °FPassing clouds.12 mph72%30.01 "HgN/A
11:20 PM55 °FPassing clouds.12 mph72%29.98 "HgN/A
10:50 PM55 °FClear.8 mph72%30.01 "Hg10 mi
10:20 PM59 °FPassing clouds.5 mph68%29.98 "HgN/A
9:50 PM61 °FClear.10 mph63%29.98 "Hg10 mi
9:20 PM63 °FPassing clouds.10 mph56%29.98 "HgN/A
8:50 PM61 °FPassing clouds.9 mph63%29.98 "HgN/A
8:20 PM59 °FPassing clouds.6 mph68%29.98 "HgN/A
7:50 PM57 °FPassing clouds.5 mph72%29.98 "HgN/A
7:20 PM59 °FPassing clouds.3 mph68%29.98 "HgN/A
6:50 PM57 °FClear.7 mph72%29.98 "Hg10 mi
6:20 PM59 °FClear.5 mph72%29.98 "Hg10 mi
5:50 PM59 °FSunny.7 mph77%29.98 "Hg10 mi
5:20 PM63 °FSunny.7 mph64%29.98 "Hg10 mi
4:50 PM64 °FSunny.7 mph60%29.95 "Hg10 mi
4:20 PM66 °FSunny.5 mph56%29.98 "Hg10 mi
3:50 PM66 °FPassing clouds.3 mph56%29.98 "HgN/A
3:20 PM66 °FSunny.1 mph52%29.98 "Hg10 mi
2:50 PM66 °FSunny.1 mph56%30.01 "Hg10 mi
2:20 PM68 °FSunny.2 mph49%30.01 "Hg10 mi
1:50 PM66 °FSunny.2 mph52%30.01 "Hg10 mi
1:20 PM64 °FSunny.2 mph49%30.01 "Hg10 mi
12:50 PM64 °FPassing clouds.3 mph46%29.98 "HgN/A
12:20 PM63 °FSunny.8 mph56%29.98 "Hg10 mi
11:50 AM61 °FSunny.8 mph55%30.01 "Hg10 mi
11:20 AM57 °FSunny.9 mph59%30.01 "Hg10 mi
10:50 AM55 °FSunny.12 mph63%30.01 "Hg10 mi
10:20 AM55 °FPassing clouds.10 mph63%30.01 "HgN/A
9:50 AM52 °FPassing clouds.12 mph67%30.01 "HgN/A
9:20 AM52 °FSunny.10 mph67%30.01 "Hg10 mi
8:50 AM52 °FSunny.10 mph67%30.01 "Hg10 mi
8:20 AM50 °FSunny.12 mph71%29.98 "Hg10 mi
7:50 AM50 °FSunny.13 mph67%29.98 "Hg10 mi
7:20 AM50 °FPassing clouds.13 mph67%29.98 "HgN/A
6:50 AM48 °FClear.14 mph71%29.98 "Hg10 mi
6:20 AM50 °FClear.14 mph71%29.98 "Hg10 mi
5:50 AM50 °FClear.12 mph71%29.98 "Hg10 mi
5:20 AM50 °FPassing clouds.12 mph67%29.98 "HgN/A
Weather by CustomWeather, © 2016

See weather overviewHow to use our weather pages